* Astronomy

Members Login
Username 
 
Password 
    Remember Me  
Post Info TOPIC: Asteroid 2011 EU29


L

Posts: 131433
Date:
RE: Asteroid 2011 EU29
Permalink  
 


The 280 - 620 metre wide asteroid 2011 EU29 will make a close pass (42.7 lunar distances, 0.1098 AU) travelling at 14.00 km/second, to the Earth-Moon system on the 22nd January 2015 @ 14:39 UT ±00:01. 

See more

The Lunar Distance (LD), the distance between Earth and the Moon, equals 384,401 km, (or 0.00256 AU).



__________________


L

Posts: 131433
Date:
Permalink  
 

Orbital elements:
2011 EU29                                           PHA, Earth MOID = 0.0030 AU
Epoch 2014 May 23.0 TT = JDT 2456800.5                  MPC
M 307.75059              (2000.0)            P               Q
n   0.24924880     Peri.  251.17634     +0.36697344     -0.93022900
a   2.5006179      Node   177.29180     +0.86949068     +0.34219958
e   0.7001097      Incl.    2.57451     +0.33063038     +0.13256491
P   3.95           H   19.9           G   0.15           U   2

MPEC 2014 - O38



__________________


L

Posts: 131433
Date:
Permalink  
 

Orbital elements:
2011 EU29 PHA, Earth MOID = 0.0023 AU
Epoch 2011 Feb. 8.0 TT = JDT 2455600.5 MPC
M 9.69111 (2000.0) P Q
n 0.27010639 Peri. 250.64758 +0.36879434 -0.92950936
a 2.3701699 Node 177.70890 +0.86844311 +0.34389103
e 0.6827362 Incl. 2.51691 +0.33135676 +0.13323401
P 3.65 H 19.9 G 0.15 U 9

MPEC 2011 - E49


__________________
Page 1 of 1  sorted by
 
Quick Reply

Please log in to post quick replies.



Create your own FREE Forum
Report Abuse
Powered by ActiveBoard